Tracking 19847 objects as of 17-Sep-2019
HD Live streaming from Space Station
objects crossing your sky now

COSMOS 715

Track COSMOS 715 now!
10-day predictions
COSMOS 715 is classified as:


NORAD ID: 7682
Int'l Code: 1975-016E
Perigee: 1,476.9 km
Apogee: 1,510.9 km
Inclination: 74.0 °
Period: 115.7 minutes
Semi major axis: 7864 km
RCS: 0.728 m2 (medium)
Launch date: February 28, 1975
Source: Commonwealth of Independent States (former USSR) (CIS)
Launch site: PLESETSK MISSILE AND SPACE COMPLEX (PKMTR)
aabbcc
Your satellite tracking list
Your tracking list is empty




NASA's NSSDC Master Catalog

Two Line Element Set (TLE):
1  7682U 75016E   19259.89691231 +.00000002 +00000-0 +12430-3 0  9992
2  7682 074.0044 176.5219 0021612 143.2239 280.6864 12.44706723595123
Source of the keplerian elements: AFSPC